Location: Asheville, NC
(35.6000°N, 82.5500°W)
Time: 00:23:37
(UTC-04:00)

Vanguard 3 - Pass Details

Date: 13 March 2018
Orbit: 508 x 3264 km, 33.3° (Epoch: 18 June)

Event Time Altitude Azimuth Distance (km) Brightness Sun altitude
Rises 14:18:47 0° 280° (W) 6,523 11.8 50.6°
Reaches altitude 10° 14:23:46 10° 278° (W) 5,126 11.4 50.3°
Maximum altitude 14:37:02 62° 202° (SSW) 1,749 11.0 49.4°
Drops below altitude 10° 14:44:20 10° 123° (ESE) 2,934 10.2 48.8°
Sets 14:46:28 0° 119° (ESE) 3,636 10.5 48.6°
